Overview Statistics Trail Chart Weather Telemetry Raw packets
 

This is the latest recevied weather packets stored in our database for station/object KO6LQK. If no packets are shown the sender has not sent any weather packets the latest 10 day(s).

<< 19 20 21 22 23 24 25 >>
Time Temp. Humidity Pressure Rain* Wind** Luminosity Snow
1788305310 27.78° C 15% 1021 hPa 0 mm - 550 W/m² -
1788305005 27.78° C 14% 1020.9 hPa 0 mm - 562 W/m² -
1788304701 27.78° C 15% 1020.7 hPa 0 mm - 577 W/m² -
1788304397 28.33° C 14% 1020.8 hPa 0 mm - 592 W/m² -
1788304093 28.33° C 15% 1020.9 hPa 0 mm - 603 W/m² -
1788303792 28.33° C 16% 1021.1 hPa 0 mm - 617 W/m² -
1788303488 28.33° C 15% 1021 hPa 0 mm - 626 W/m² -
1788303188 28.89° C 15% 1020.9 hPa 0 mm - 644 W/m² -
1788302883 28.33° C 15% 1020.9 hPa 0 mm - 661 W/m² -
1788302579 28.33° C 16% 1021 hPa 0 mm - 682 W/m² -
1788302275 28.89° C 14% 1021.1 hPa 0 mm - 698 W/m² -
1788301970 28.89° C 14% 1021 hPa 0 mm - 719 W/m² -
1788301666 28.89° C 15% 1020.9 hPa 0 mm - 737 W/m² -
1788301362 28.33° C 15% 1021 hPa 0 mm - 758 W/m² -
1788301058 28.33° C 14% 1021 hPa 0 mm - 770 W/m² -
1788300754 28.33° C 15% 1021.1 hPa 0 mm - 785 W/m² -
1788300453 28.33° C 16% 1021 hPa 0 mm - 793 W/m² -
1788300152 28.33° C 15% 1021.2 hPa 0 mm - 806 W/m² -
1788299851 28.89° C 15% 1021.1 hPa 0 mm - 814 W/m² -
1788299546 28.33° C 15% 1021.2 hPa 0 mm - 828 W/m² -
1788299244 28.33° C 16% 1021.2 hPa 0 mm - 835 W/m² -
1788298938 28.33° C 16% 1021.4 hPa 0 mm - 845 W/m² -
1788298637 28.89° C 15% 1021.5 hPa 0 mm - 857 W/m² -
1788298333 28.89° C 15% 1021.2 hPa 0 mm - 864 W/m² -
1788298032 28.33° C 15% 1021.1 hPa 0 mm - 876 W/m² -

* Rain latest hour (hover to see other rain measurements)
** Current wind speed in m/s (hover to see current wind gust speed)